Preview of NWS' New Version of Forecast
This preview is not operational and should not be used for support decisions.
Latest weather observations around

Dalton, Dalton Municipal Airport (KDNN)

Using English Units (Switch to International System of Units)
Date/ Time (EDT) Wind (mph) Vis. (mi) Weather Sky Cond. Temp (°F) Rel. Humidity Wind Chill (°F) Heat Index (°F) Pressure Precip. (in)
Air Dwpt 6 hour Altimeter (inHg) Sea level (inHg) 1 hr 3 hr 6 hr
Max Min
May 24 16:55 Calm 10 Partly Cloudy SCT050 SCT090 93 64     39%   95 30.15        
May 24 16:35 NNW 3 10 Partly Cloudy SCT050 SCT100 90 68     49%   93 30.15        
May 24 16:15 N 3 10 Mostly Cloudy SCT050 BKN090 88 68     52%   91 30.16        
May 24 15:55 Calm 10 Mostly Cloudy SCT065 BKN090 90 64     43%   91 30.17        
May 24 15:35 W 5 10 Partly Cloudy SCT055 SCT065 SCT080 93 63     36%   94 30.17        
May 24 15:15 WSW 3 10 Clear CLR 91 64     41%   93 30.17        
May 24 14:55 NW 5 10 Clear CLR 91 64     41%   93 30.18        
May 24 14:35 NNW 3 10 Partly Cloudy SCT048 SCT050 SCT065 91 64     41%   93 30.18        
May 24 14:15 N 3 10 Mostly Cloudy SCT050 SCT055 BKN100 91 66     44%   94 30.19        
May 24 13:55 WNW 5 10 Partly Cloudy SCT090 90 64     43%   91 30.19        
May 24 13:35 NNW 6 10 Mostly Cloudy BKN100 88 64     46%   89 30.2        
May 24 13:15 N 6 10 Partly Cloudy SCT100 88 64     46%   89 30.21        
May 24 12:55 N 9 10 Clear CLR 88 66     49%   90 30.21        
May 24 12:35 NW 5 10 Partly Cloudy SCT060 88 68     52%   91 30.21        
May 24 12:15 NW 7 10 Partly Cloudy SCT060 90 70     52%   95 30.22        
May 24 11:55 N 3 10 Partly Cloudy SCT050 88 70     55%   93 30.22        
May 24 11:35 Calm 10 Partly Cloudy SCT050 SCT090 86 70     59%   91 30.22        
May 24 11:15 Calm 10 Mostly Cloudy BKN050 BKN090 84 70     62%   88 30.22        
May 24 10:55 Calm 10 Partly Cloudy SCT090 84 70     62%   88 30.22        
May 24 10:35 Calm 10 Partly Cloudy SCT060 SCT090 81 70     70%   84 30.23        
May 24 10:15 Calm 10 Partly Cloudy SCT060 SCT090 79 70     74%   80 30.23        
May 24 09:55 Calm 10 Partly Cloudy SCT050 SCT090 79 70     74%   80 30.23        
May 24 09:35 Calm 10 Mostly Cloudy BKN050 77 70     78%   78 30.22        
May 24 09:15 Calm 10 Partly Cloudy SCT050 77 70     78%   78 30.21        
May 24 08:55 Calm 10 Clear CLR 75 70     83%   76 30.21        
May 24 08:35 Calm 10 Clear CLR 73 70     89%   75 30.2        
May 24 08:15 Calm 10 Clear CLR 72 72     100%   73 30.2        
May 24 07:55 Calm 10 Partly Cloudy SCT050 SCT065 70 70     100%     30.2        
May 24 07:35 Calm 10 Cloudy BKN050 OVC065 68 68     100%     30.19        
May 24 07:15 Calm 7 Mostly Cloudy BKN050 68 66     94%     30.18        
May 24 06:55 Calm 10 Mostly Cloudy BKN050 66 66     100%     30.18        
May 24 06:35 Calm 7 Partly Cloudy SCT048 66 64     94%     30.17        
May 24 06:15 Calm 7 Clear CLR 66 66     100%     30.16        
May 24 05:55 Calm 7 Clear CLR 68 66     94%     30.16        
May 24 05:35 Calm 7 Clear CLR 68 66     94%     30.16        
May 24 05:15 Calm 10 Clear CLR 68 66     94%     30.16        
May 24 04:55 Calm 7 Clear CLR 68 66     94%     30.16        
May 24 04:35 Calm 7 Clear CLR 68 68     100%     30.16        
May 24 04:15 Calm 7 Clear CLR 68 68     100%     30.16        
May 24 03:55 Calm 7 Clear CLR 68 68     100%     30.16        
May 24 03:35 Calm 7 Clear CLR 68 68     100%     30.16        
May 24 03:15 Calm 7 Clear CLR 68 68     100%     30.16        
May 24 02:55 Calm 7 Clear CLR 68 68     100%     30.16        
May 24 02:35 Calm 10 Clear CLR 70 68     94%     30.16        
May 24 02:15 Calm 10 Partly Cloudy SCT060 70 68     94%     30.17        
May 24 01:55 Calm 10 Partly Cloudy SCT060 70 68     94%     30.17        
May 24 01:35 Calm 10 Clear CLR 70 70     100%     30.18        
May 24 01:15 Calm 10 Clear CLR 70 70     100%     30.18        
May 24 00:55 Calm 10 Clear CLR 70 70     100%     30.18        
May 24 00:35 Calm 10 Clear CLR 72 70     94%   73 30.18        
May 24 00:15 Calm 10 Clear CLR 72 70     94%   73 30.18        
May 23 23:55 Calm 10 Clear CLR 72 70     94%   73 30.18        
May 23 23:35 Calm 10 Clear CLR 72 70     94%   73 30.18        
May 23 23:15 Calm 10 Clear CLR 72 70     94%   73 30.18        
May 23 22:55 Calm 10 Clear CLR 73 70     89%   75 30.17        
May 23 22:35 Calm 10 Clear CLR 73 72     94%   75 30.16        
May 23 22:15 Calm 10 Clear CLR 75 70     83%   76 30.16        
May 23 21:55 Calm 10 Clear CLR 75 70     83%   76 30.15        
May 23 21:35 Calm 10 Clear CLR 77 70     78%   78 30.15        
May 23 21:15 Calm 10 Clear CLR 79 70     74%   80 30.16        
May 23 20:55 Calm 10 Clear CLR 81 70     70%   84 30.16        
May 23 20:35 Calm 10 Clear CLR 82 70     66%   86 30.15        
May 23 20:15 Calm 10 Clear CLR 88 70     55%   93 30.15        
May 23 19:55 Calm 10 Clear CLR 90 68     49%   93 30.16        
May 23 19:35 Calm 10 Clear CLR 90 64     43%   91 30.16        
May 23 19:15 Calm 10 Clear CLR 90 64     43%   91 30.16        
May 23 18:55 Calm 10 Clear CLR 90 64     43%   91 30.17        
May 23 18:35 Calm 10 Clear CLR 90 64     43%   91 30.17        
May 23 18:15 Calm 10 Clear CLR 91 64     41%   93 30.17        
May 23 17:55 Calm 10 Clear CLR 91 64     41%   93 30.17        
May 23 17:35 WSW 5 10 Clear CLR 91 64     41%   93 30.18        
May 23 17:15 SSE 3 10 Partly Cloudy SCT110 90 64     43%   91 30.18        
May 23 16:55 WSW 5 10 Partly Cloudy SCT110 91 63     38%   92 30.19        
May 23 16:35 Calm 10 Clear CLR 91 63     38%   92 30.2        
May 23 16:15 W 3 10 Clear CLR 91 64     41%   93 30.2        
May 23 15:55 SSE 5 10 Clear CLR 91 64     41%   93 30.21        
May 23 15:35 S 5 10 Clear CLR 91 64     41%   93 30.22        
May 23 15:15 W 3 10 Clear CLR 91 64     41%   93 30.23        
May 23 14:55 W 3 10 Clear CLR 91 63     38%   92 30.24        
May 23 14:35 Calm 10 Clear CLR 90 64     43%   91 30.25        
May 23 14:15 Calm 10 Clear CLR 90 63     41%   90 30.25        
May 23 13:55 SW 3 10 Clear CLR 90 66     46%   92 30.25        
May 23 13:35 S 3 10 Clear CLR 88 66     49%   90 30.26        
May 23 13:15 Calm 10 Clear CLR 86 66     52%   88 30.27        
May 23 12:55 SE 5 10 Clear CLR 86 66     52%   88 30.28        
May 23 12:35 Calm 10 Clear CLR 86 66     52%   88 30.28        
May 23 12:15 SW 3 10 Clear CLR 84 66     55%   87 30.28        
May 23 11:55 S 6 10 Clear CLR 82 66     58%   85 30.28        
May 23 11:35 SSE 3 10 Clear CLR 82 64     55%   84 30.29        
May 23 11:15 SSE 5 10 Clear CLR 81 64     58%   82 30.29        
May 23 10:55 SSE 6 10 Clear CLR 81 64     58%   82 30.29        
May 23 10:35 S 3 10 Partly Cloudy SCT095 79 64     61%   79 30.29        
May 23 10:15 SE 6 10 Partly Cloudy SCT095 79 66     65%   79 30.29        
May 23 09:55 SE 8 10 Clear CLR 77 64     65%   77 30.29        
May 23 09:35 SE 9 10 Clear CLR 77 64     65%   77 30.29        
May 23 09:15 SE 8 10 Clear CLR 77 66     69%   78 30.28        
May 23 08:55 SE 6 10 Clear CLR 75 66     74%   76 30.28        
May 23 08:35 SE 6 10 Clear CLR 75 68     78%   76 30.27        
May 23 08:15 SSE 3 10 Clear CLR 73 68     83%   74 30.27        
May 23 07:55 S 3 10 Clear CLR 72 68     88%   73 30.26        
May 23 07:35 Calm 10 Clear CLR 70 68     94%     30.25        
May 23 07:15 Calm 10 Clear CLR 70 68     94%     30.24        
May 23 06:55 Calm 10 Clear CLR 70 68     94%     30.23        
May 23 06:35 S 3 10 Clear CLR 68 68     100%     30.22        
May 23 06:15 Calm 7 Clear CLR 68 66     94%     30.22        
May 23 05:55 Calm 7 Clear CLR 68 66     94%     30.21        
May 23 05:35 Calm 7 Clear CLR 68 66     94%     30.21        
May 23 05:15 Calm 10 Clear CLR 70 68     94%     30.21        
May 23 04:55 Calm 10 Clear CLR 70 66     88%     30.2        
May 23 04:35 Calm 10 Clear CLR 70 66     88%     30.19        
May 23 04:15 Calm 10 Clear CLR 72 68     88%   73 30.18        
May 23 03:55 Calm 10 Clear CLR 72 68     88%   73 30.18        
May 23 03:35 Calm 10 Clear CLR 73 68     83%   74 30.18        
May 23 03:15 SSE 7 10 Clear CLR 73 68     83%   74 30.17        
May 23 02:55 SSE 8 10 Clear CLR 73 68     83%   74 30.16        
May 23 02:35 S 5 10 Clear CLR 73 68     83%   74 30.16        
May 23 02:15 SSE 5 10 Clear CLR 73 68     83%   74 30.16        
May 23 01:55 Calm 10 Clear CLR 73 68     83%   74 30.16        
May 23 01:35 Calm 10 Clear CLR 73 68     83%   74 30.16        
May 23 01:15 Calm 10 Clear CLR 75 68     78%   76 30.16        
May 23 00:55 SE 6 10 Clear CLR 75 68     78%   76 30.16        
May 23 00:35 SSE 7 10 Clear CLR 75 68     78%   76 30.16        
May 23 00:15 SSE 3 10 Clear CLR 73 68     83%   74 30.16        
May 23 00:00 SSE 3 10 Clear CLR 73 68     83%   74 30.16        
May 22 23:35 SSE 3 10 Clear   73 68     83%   74 30.16        
May 22 23:15 Calm 10 Clear   75 66     74%   76 30.16        
May 22 22:55 SSE 3 10 Clear   75 64     69%   76 30.16        
May 22 22:35 SSE 5 10 Clear CLR 73 63     69%   74 30.15        
May 22 22:15 Calm 10 Clear CLR 72 64     78%   72 30.15        
May 22 21:55 Calm 10 Clear CLR 73 64     73%   74 30.13        
May 22 21:35 Calm 10 Clear CLR 75 63     65%   75 30.13        
May 22 21:15 Calm 10 Clear CLR 77 63     61%   77 30.12        
May 22 20:55 Calm 10 Clear CLR 81 63     54%   82 30.12        
May 22 20:35 Calm 10 Clear CLR 84 63     48%   85 30.12        
May 22 20:15 Calm 10 Clear CLR 86 61     43%   86 30.11        
May 22 19:55 Calm 10 Clear CLR 88 61     40%   88 30.11        
May 22 19:35 S 5 10 Clear CLR 90 59     36%   89 30.11        
May 22 19:15 Calm 10 Clear CLR 90 59     36%   89 30.11        
May 22 18:55 S 6 10 Clear CLR 90 57     34%   88 30.11        
May 22 18:35 S 5 10 Clear CLR 91 59     34%   91 30.1        
May 22 18:15 S 3 10 Clear CLR 90 59     36%   89 30.1        
May 22 17:55 S 6 10 Partly Cloudy SCT070 SCT090 90 57     34%   88 30.1        
May 22 17:35 SSE 7 10 Partly Cloudy SCT070 SCT090 90 59     36%   89 30.09        
May 22 17:15 S 5 10 Partly Cloudy SCT070 SCT090 90 59     36%   89 30.1        
May 22 16:55 S 5 10 Mostly Cloudy SCT070 BKN090 90 61     38%   90 30.1        
May 22 16:35 SSE 6 10 Partly Cloudy SCT070 SCT090 90 59     36%   89 30.1        
May 22 16:15 SSW 5 10 Partly Cloudy SCT070 SCT090 90 59     36%   89 30.1        
May 22 15:55 S 5 10 Partly Cloudy SCT075 SCT090 90 59     36%   89 30.1        
May 22 15:35 SSW 5 10 Partly Cloudy SCT075 90 59     36%   89 30.11        
May 22 15:15 SW 6 10 Clear CLR 91 61     36%   91 30.11        
May 22 14:55 S 6 10 Partly Cloudy SCT075 90 59     36%   89 30.11        
May 22 14:35 SW 5 10 Partly Cloudy SCT060 90 61     38%   90 30.11        
May 22 14:15 SW 5 10 Partly Cloudy SCT060 90 61     38%   90 30.11        
May 22 13:55 SW 7 10 Clear CLR 90 59     36%   89 30.12        
May 22 13:35 S 8 10 Clear CLR 88 59     38%   87 30.12        
May 22 13:15 SSE 8 10 Clear CLR 88 61     40%   88 30.12        
May 22 12:55 SSW 7 10 Clear CLR 86 59     40%   85 30.12        
May 22 12:35 SSE 6 10 Clear CLR 86 59     40%   85 30.12        
May 22 12:15 S 6 10 Clear CLR 86 59     40%   85 30.12        
May 22 11:55 SSW 3 10 Clear CLR 86 61     43%   86 30.11        
May 22 11:35 SW 3 10 Clear CLR 82 61     48%   83 30.11        
May 22 11:15 SSW 6 10 Clear CLR 82 61     48%   83 30.11        
May 22 10:55 S 5 10 Clear CLR 82 59     45%   82 30.11        
May 22 10:35 S 3 10 Clear CLR 81 61     51%   81 30.1        
May 22 10:15 S 8 10 Clear CLR 81 63     54%   82 30.09        
May 22 09:55 S 5 10 Clear CLR 79 63     58%   79 30.09        
May 22 09:35 S 5 10 Clear CLR 79 63     58%   79 30.09        
May 22 09:15 Calm 10 Clear CLR 75 64     69%   76 30.09        
May 22 08:55 Calm 10 Clear CLR 73 64     73%   74 30.09        
May 22 08:35 Calm 10 Clear CLR 72 63     73%   72 30.09        
May 22 08:15 Calm 10 Clear CLR 70 63     78%     30.08        
May 22 07:55 SSE 5 10 Clear CLR 68 63     83%     30.08        
May 22 07:35 S 3 10 Clear CLR 64 63     94%     30.07        
May 22 07:15 Calm 10 Partly Cloudy SCT085 63 63     100%     30.06        
May 22 06:55 Calm 10 Clear CLR 63 63     100%     30.06        
May 22 06:35 Calm 10 Partly Cloudy SCT060 SCT095 63 63     100%     30.06        
May 22 06:15 Calm 10 Partly Cloudy SCT095 64 63     94%     30.06        
May 22 05:55 Calm 10 Partly Cloudy SCT065 SCT095 63 63     100%     30.06        
May 22 05:35 Calm 10 Partly Cloudy SCT065 63 63     100%     30.05        
May 22 05:15 Calm 10 Clear CLR 63 63     100%     30.05        
May 22 04:55 Calm 10 Clear CLR 64 63     94%     30.04        
May 22 04:35 Calm 10 Clear CLR 64 63     94%     30.04        
May 22 04:15 Calm 10 Clear CLR 64 63     94%     30.03        
May 22 03:55 Calm 10 Clear CLR 64 63     94%     30.03        
May 22 03:35 Calm 10 Clear CLR 64 63     94%     30.01        
May 22 03:15 Calm 10 Clear CLR 66 63     88%     30        
May 22 02:55 Calm 10 Clear CLR 66 63     88%     30        
May 22 02:35 Calm 10 Clear CLR 68 63     83%     30        
May 22 02:15 Calm 10 Clear CLR 68 63     83%     30        
May 22 01:55 Calm 10 Partly Cloudy SCT065 70 63     78%     30        
May 22 01:35 S 3 10 Partly Cloudy SCT065 68 63     83%     30        
May 22 01:15 Calm 10 Clear CLR 68 64     88%     30        
May 22 00:55 Calm 10 Clear CLR 68 64     88%     29.99        
May 22 00:35 Calm 10 Clear CLR 68 64     88%     29.99        
May 22 00:15 Calm 10 Clear CLR 70 64     83%     29.99        
May 21 23:55 Calm 10 Clear CLR 72 64     78%   72 29.99        
May 21 23:35 Calm 10 Clear CLR 73 64     73%   74 29.98        
May 21 23:15 SSE 3 10 Clear CLR 73 64     73%   74 29.97        
May 21 22:55 Calm 10 Clear CLR 72 64     78%   72 29.96        
May 21 22:35 Calm 10 Clear CLR 70 64     83%     29.96        
May 21 22:15 Calm 10 Clear CLR 72 64     78%   72 29.95        
May 21 21:55 Calm 10 Clear CLR 72 64     78%   72 29.94        
May 21 21:35 Calm 10 Clear CLR 73 64     73%   74 29.94        
May 21 21:15 Calm 10 Clear CLR 77 64     65%   77 29.94        
May 21 20:55 Calm 10 Clear CLR 79 64     61%   79 29.93        
May 21 20:35 Calm 10 Clear CLR 81 66     62%   83 29.93        
May 21 20:15 Calm 10 Clear CLR 84 66     55%   87 29.94        
May 21 19:55 Calm 10 Clear CLR 86 64     49%   88 29.93        
May 21 19:35 Calm 10 Clear CLR 88 63     43%   88 29.93        
May 21 19:15 SE 3 10 Partly Cloudy SCT090 88 63     43%   88 29.93        
May 21 18:55 Calm 10 Partly Cloudy SCT090 84 66     55%   87 29.93        
May 21 18:35 Calm 10 Partly Cloudy SCT070 86 63     46%   87 29.94        
May 21 18:15 Calm 10 Mostly Cloudy BKN075 88 61     40%   88 29.94        
May 21 17:55 Calm 10 Mostly Cloudy BKN075 90 59     36%   89 29.94        
May 21 17:35 Calm 10 Clear CLR 88 57     36%   87 29.94        
May 21 17:15 SSW 3 10 Clear CLR 90 57     34%   88 29.93        
May 21 16:55 S 6 10 Clear CLR 90 57     34%   88 29.94        
May 15 14:35 SE 5 10 Clear CLR 81 64     58%   82 30        
May 15 12:15 S 3 10 Clear CLR 77 68     74%   78 30.04        
May 15 10:55 Calm 10 Clear CLR 75 68     78%   76 30.04        
May 15 02:15 Calm 10 Clear CLR 70 68     94%     30.01        
May 14 19:55 Calm 10 Clear CLR 81 72     74%   85 29.97        
May 14 07:15 Calm 10 Clear CLR 61 61     100%     30.08        
May 14 01:35 Calm 10 Clear CLR 64 64     100%     30.08        
May 13 23:55 Calm 10 Clear CLR 68 68     100%     30.1        
May 13 19:15 Calm 10 Clear CLR 86 63     46%   87 30.04        
May 13 13:55 NE 5 10 Clear CLR 86 63     46%   87 30.13        
May 12 19:55 Calm 10 Clear CLR 81 59     48%   81 30.1        
May 12 14:15 Calm 10 Partly Cloudy SCT065 86 57     38%   85 30.15        
May 12 06:35 Calm 7 Clear CLR 59 59     100%     30.16        
Notice The following observation data may not be complete
May 12 06:15   7 Clear CLR          %              
May 12 01:35 Calm 10 Clear CLR 64 63     94%     30.13        
May 11 22:55 Calm 10 Clear CLR 68 64     88%     30.12        
May 11 17:55 S 6 10 Clear CLR 86 61     43%   86 30.07        
Jun 12 08:35 Calm 10 Cloudy SCT024 BKN030 OVC040 73 72     94%   75 30.22        
Notice The following observation data may not be complete
Jun 12 05:15   10 Mostly Cloudy SCT049 BKN070          %              
Jun 12 01:55 Calm 10 Cloudy SCT046 OVC075 73 70     89%   75 30.17        
Notice The following observation data may not be complete
Jun 11 14:35   10 Mostly Cloudy SCT037 SCT050 BKN090          %              
Jun 11 10:15 SSE 5 10 Cloudy OVC019 75 70     83%   76 30.22        
Notice The following observation data may not be complete
Jun 11 09:55   10 Cloudy OVC017          %              
Jun 11 06:55 Calm 10 Clear CLR 63 63     100%     30.17        
Notice The following observation data may not be complete
Jun 11 03:35   10 Clear CLR          %              
Jun 10 22:15 Calm 10 Partly Cloudy SCT070 73 66     78%   74 30.11        
Jun 10 19:55 SSE 3 10 Partly Cloudy SCT060 81 61     51%   81 30.06        
Jun 10 18:55 SSE 3 10 Clear CLR 82 61     48%   83 30.05        
Notice The following observation data may not be complete
Jun 10 10:35   10 Clear CLR          %              
Jun 10 00:15 Calm 10 Clear CLR 63 63     100%     30.02        
Jun 09 23:55 Calm 10 Clear CLR 63 63     100%     30.02        
Notice The following observation data may not be complete
Jun 09 22:35   10 Clear CLR          %              
Jun 09 17:55 SSW 3 10 Clear CLR 81 54     39%   80 29.95        
Jun 09 17:15 S 5 10 Clear CLR 81 55     42%   81 29.95        
Jun 09 16:15 S 3 10 Partly Cloudy SCT070 81 55     42%   81 29.96        
Notice The following observation data may not be complete
Jun 09 15:15   10 Partly Cloudy SCT060          %              
Jun 09 14:15 Calm 10 Partly Cloudy SCT050 SCT060 77 57     50%   77 29.98        
Jun 09 11:55 S 3 10 Clear CLR 75 61     61%   75 30.01        
Jun 09 00:15 NW 5 10 Clear CLR 64 59     83%     29.92        
Jun 07 22:35 NNW 7 10 Clear CLR 66 55     68%     29.89        
Notice The following observation data may not be complete
Jun 07 20:35   10 Clear CLR          %              
Jun 07 18:55 N 9 10 Clear CLR 77 52     41%   76 29.84        
Jun 07 18:35 N 9 10 Clear CLR 77 52     41%   76 29.84        
Notice The following observation data may not be complete
Jun 07 15:15   10 Clear CLR          %              
Jun 07 11:55 NNE 6 10 Mostly Cloudy BKN049 72 55     57%   71 29.88        
Jun 06 09:15 Calm 10 Cloudy BKN007 OVC011 70 70     100%     29.84        
Jun 06 05:15 Calm 5 Fog/Mist BKN006 BKN010 BKN015 70 70     100%     29.81        
Notice The following observation data may not be complete
Jun 06 04:55   4 Fog/Mist SCT001 BKN006 OVC013          %              
Jun 06 04:35 Calm 0.75 Fog/Mist OVC001 70 70     100%     29.81        
Jun 05 16:15 Calm 10 Mostly Cloudy SCT060 BKN070 72 70     94%   73 29.8        
Jun 05 15:55 NNW 7 10 Cloudy SCT015 BKN038 OVC060 73 70     89%   75 29.8